Regional Weather Roundup
Issued by NWS

Home | Current Version | Previous Version | Text Only | Print | Product List | Glossary Off
Versions: 1 2 3 4 5 6 7 8 9 10 11 12 13 14 15 16 17 18 19 20 21 22 23 24 25 26 27 28 29 30 31 32 33 34 35 36 37 38 39 40 41 42 43 44 45 46

000
ASUS45 KCYS 040410
RWRWY

WYOMING REGIONAL WEATHER ROUNDUP
NATIONAL WEATHER SERVICE CHEYENNE WY
1000 PM MDT MON AUG 03 2015

NOTE:  "FAIR" INDICATES FEW OR NO CLOUDS BELOW 12,000 FEET
WITH NO SIGNIFICANT WEATHER AND/OR OBSTRUCTIONS TO VISIBILITY.

WYZ001-040500-
YELLOWSTONE NATIONAL PARK

CITY           SKY/WX    TMP DP  RH WIND       PRES   REMARKS
LK YELLOWSTONE   N/A     58  46  64 VRB3      30.26R
W YELLOWSTONE  NOT AVBL

$$
WYZ002>013-054>058-071-098>099-040500-
NORTHERN WYOMING

CITY           SKY/WX    TMP DP  RH WIND       PRES   REMARKS
JACKSON        NOT AVBL
CODY           CLOUDY    70  50  49 SE15      30.01S
GREYBULL       FAIR      73  47  39 S17       29.95S
WORLAND        FAIR      70  48  45 S13       29.97F
SHERIDAN       FAIR      74  43  32 SE7       29.91S
BUFFALO        MOCLDY    70  47  43 S30G44    30.09R
GILLETTE       FAIR      68  51  54 VRB6      30.01R
HULETT         FAIR      72  59  64 E5        30.02F
NEWCASTLE      FAIR      73  55  53 MISG      30.00S

$$
WYZ014>020-022>026-101>103-040500-
CENTRAL WYOMING

CITY           SKY/WX    TMP DP  RH WIND       PRES   REMARKS
BIG PINEY      LGT RAIN  57  54  89 N6        30.16S
PINEDALE       FAIR      54  54 100 W5        30.16S
DUBOIS         RAIN      54  52  94 SE10      30.20R
LANDER         LGT RAIN  60  56  86 W7        30.09R
RIVERTON       CLOUDY    63  56  78 S10       30.08R
CASPER         MOCLDY    60  54  80 W7        30.07R
DOUGLAS        FAIR      71  48  43 VRB3      30.04R

$$
WYZ021-027>030-104>119-040500-
SOUTHERN WYOMING

CITY           SKY/WX    TMP DP  RH WIND       PRES   REMARKS
EVANSTON       FAIR      53  50  89 SW10      30.22S
KEMMERER       LGT RAIN  52  50  93 NW9       30.20R
FORT BRIDGER   CLOUDY    55  55 100 W13       30.24R
ROCK SPRINGS   CLOUDY    54  51  90 SW20      30.15S
DIXON          CLOUDY    60  53  79 W3        30.20R
RAWLINS        CLOUDY    58  55  90 E7        30.15S
SARATOGA       MOCLDY    59  52  77 S12       30.19R
LARAMIE        LGT RAIN  56  50  80 S20G25    30.24R
CHEYENNE       CLOUDY    68  49  50 S16G22    30.14R
TORRINGTON     FAIR      75  47  36 SE9       29.97R
PINE BLUFFS    FAIR      70  46  43 S10       30.09R

$$


USA.gov is the U.S. government's official web portal to all federal, state and local government web resources and services.